Regional Weather Roundup
Issued by NWS State College, PA

Home | Current Version | Previous Version | Graphics & Text | Print | Product List | Glossary Off
Versions: 1 2 3 4 5 6 7 8 9 10 11 12 13 14 15 16 17 18 19 20 21 22 23 24 25 26 27 28 29 30 31 32 33 34 35 36 37 38 39 40 41 42 43 44 45 46 47 48 49 50

931
ASUS41 KCTP 170803
RWRCTP

REGIONAL WEATHER ROUNDUP
NATIONAL WEATHER SERVICE STATE COLLEGE PA
300 AM EST TUE JAN 17 2017

Note: "fair" indicates few or no clouds below 12,000 feet with no
significant weather and/or obstructions to visibility.

* = STATION THAT DOES NOT REPORT PRECIPITATION /E.G. RAIN...SNOW...ETC/
    THUNDER OR FOG.

PAZ002>004-007>009-013>016-020>023-029>032-170900-
WESTERN PENNSYLVANIA

CITY           SKY/WX    TMP DP  RH WIND       PRES   REMARKS
ERIE           LGT RAIN  37  33  85 CALM      30.10F
MEADVILLE      LGT RAIN  39  37  92 VRB6      30.07F FOG
FRANKLIN*        N/A     36  34  93 SE6       30.11S
NEW CASTLE     LGT RAIN  37  37 100 CALM      30.09F FOG
BEAVER COUNTY  NOT AVBL
BUTLER*        CLOUDY    39  37  93 SE5       30.13S VSB 1/2
PITTSBURGH INT LGT RAIN  39  38  96 CALM      30.10R FOG
PITTSBURGH     LGT RAIN  39  37  92 SE3       30.09S VSB 3/4
INDIANA*       CLOUDY    41  39  93 E5        30.14S
LATROBE        CLOUDY    37  37 100 CALM      30.12S FOG
WASHINGTON CO* CLOUDY    39  37  93 CALM      30.10S
$$

PAZ004>006-010>012-017>019-024>028-033>037-041-042-045-046-049>053-170900-
CENTRAL PENNSYLVANIA

CITY           SKY/WX    TMP DP  RH WIND       PRES   REMARKS
BRADFORD       CLOUDY    34  31  88 SE6       30.11F
DUBOIS         CLOUDY    35  32  88 E8        30.11S FOG
CLEARFIELD     CLOUDY    33  30  88 N6        30.15F
JOHNSTOWN      CLOUDY    43  43 100 SE6       30.10F FOG
ALTOONA        LGT RAIN  34  33  96 CALM      30.17S FOG
STATE COLLEGE  MIX PCPN  32  30  93 CALM      30.19F
WILLIAMSPORT   CLOUDY    35  27  72 E3        30.23F
SELINSGROVE    CLOUDY    33  32  96 CALM      30.24F
FT INDIANTOWN  CLOUDY    34  30  83 CALM      30.25S
CAPITAL CITY   CLOUDY    37  27  67 E3        30.25S
HARRISBURG     CLOUDY    36  30  79 CALM      30.25R
YORK           CLOUDY    35  33  92 CALM      30.23F
$$

PAZ038>040-043-044-047-048-054-055-060>062-067>071-170900-
EASTERN PENNSYLVANIA

CITY           SKY/WX    TMP DP  RH WIND       PRES   REMARKS
SCRANTON       CLOUDY    34  29  82 CALM      30.22S
MOUNT POCONO   CLOUDY    32  27  81 NW6       30.18R
ALLENTOWN      CLOUDY    37  26  64 CALM      30.26R
QUAKERTOWN*    CLOUDY    36  27  69 CALM      30.26S
READING        CLOUDY    36  26  67 CALM      30.25F
LANCASTER      CLOUDY    36  32  85 CALM      30.25F
COATESVILLE    CLOUDY    36  28  75 CALM      30.25F
POTTSTOWN      CLOUDY    36  29  75 CALM      30.27F
BLUE BELL      CLOUDY    36  30  80 CALM      30.26S
DOYLESTOWN     CLOUDY    38  26  62 SW3       30.25S
WILLOW GROVE   NOT AVBL
NORTH PHILA    CLOUDY    40  28  62 CALM      30.29S
PHILADELPHIA   CLOUDY    38  30  73 CALM      30.29S
$$




USA.gov is the U.S. government's official web portal to all federal, state and local government web resources and services.